Lid_Strength_Index
8 8 8 9 9 9 10 10 15 13 13 10 8 8 6 5 5 5 5 4 3 3 2 2 2 1 1 1 1 0 1 1 0 -0 -0 0 0 -0 -0 -0 -0 -0 -0 -0
10 8 8 10 9 8 8 8 9 9 10 6 5 5 6 6 7 6 5 4 3 3 3 3 2 2 1 1 1 0 1 1 0 0 0 0 0 0 0 0 0 0 0 0
14 9 9 12 9 8 8 7 8 11 8 6 7 6 6 5 6 5 4 4 4 3 3 2 2 1 2 1 0 1 1 1 1 1 1 1 0 0 1 1 0 1 1 1
15 11 19 9 6 6 8 9 9 8 8 8 7 7 6 5 5 4 4 4 3 3 3 2 1 1 1 1 1 1 1 1 1 1 1 1 1 1 1 1 1 1 1 1
16 15 11 9 8 9 11 12 9 9 8 7 6 5 5 5 3 4 3 3 3 2 2 1 2 1 2 2 2 1 1 1 1 1 1 1 1 1 1 1 1 1 1 1
14 18 18 14 9 6 6 14 7 7 7 7 6 10 7 4 4 4 3 2 3 2 1 2 2 1 2 2 2 2 1 1 1 1 1 1 1 1 1 1 1 1 1 1
13 15 12 9 7 5 14 13 6 5 5 6 7 6 5 4 3 3 3 2 2 2 2 2 2 2 3 2 3 2 1 1 1 1 1 1 1 1 1 1 1 1 1 1
11 14 16 7 7 10 7 5 5 5 5 5 5 4 4 4 3 3 3 2 2 2 2 2 2 2 3 3 2 2 2 2 2 1 1 1 1 1 1 2 2 2 2 2
11 11 5 4 5 5 5 5 5 5 4 4 5 5 4 4 3 3 3 2 2 2 2 2 3 3 4 3 3 3 3 4 3 3 3 2 2 2 2 2 2 2 2 2
8 6 6 6 4 4 4 5 4 4 4 4 4 4 5 4 3 4 3 3 3 3 4 4 3 3 4 4 4 5 6 6 5 5 6 5 4 3 3 3 3 3 3 3
9 7 6 5 5 5 5 4 4 4 4 4 4 4 4 4 3 3 3 3 4 4 4 5 4 4 4 5 6 7 7 7 8 8 8 8 7 6 6 4 4 2 2 2
11 7 7 7 4 5 5 6 4 4 5 4 4 5 4 4 4 4 5 4 5 7 7 6 6 6 6 6 7 8 9 10 10 10 9 8 8 8 9 9 9 9 9 6
8 5 6 5 4 4 4 5 6 7 6 7 6 6 6 7 6 6 7 8 8 8 8 8 8 8 8 8 8 10 10 9 9 9 9 9 8 9 9 7 8 8 8 8
4 4 6 4 6 5 5 5 5 6 7 7 7 8 8 9 9 10 10 10 10 10 10 10 10 10 9 9 9 9 8 9 9 9 9 8 8 8 7 7 7 5 6 6
4 4 4 4 4 4 4 5 6 7 7 8 9 10 10 11 12 12 11 11 11 11 10 10 11 10 9 9 9 8 8 8 8 8 8 8 7 7 7 6 6 6 4 5
4 4 4 5 6 5 6 6 8 8 9 9 10 11 12 12 13 12 11 10 11 12 11 11 11 10 10 10 10 9 9 10 10 8 7 7 6 7 7 6 6 6 5 4
5 6 6 6 7 7 7 7 8 8 9 11 12 13 13 12 12 11 11 11 11 11 11 11 12 11 11 11 11 10 9 9 10 9 8 7 6 6 6 6 6 4 4 2
4 5 5 6 7 8 8 8 8 8 11 12 12 12 12 12 13 13 12 12 11 11 12 12 12 12 12 11 10 9 7 8 8 8 7 7 6 6 5 4 4 3 5 9
4 5 6 7 7 7 8 9 9 9 11 11 11 12 12 12 13 13 12 13 13 14 13 13 12 12 12 12 11 10 8 7 8 7 7 7 5 4 4 4 3 5 7 8
5 5 6 7 7 7 8 9 9 9 9 10 11 13 13 13 13 13 13 14 13 13 13 13 13 13 13 12 12 10 7 5 6 5 5 4 3 3 3 6 5 6 7 7
5 4 5 5 5 6 7 7 7 8 8 9 12 13 14 14 13 13 14 15 14 13 14 13 13 13 13 13 11 8 6 3 3 3 4 4 4 4 5 5 6 7 7 6
3 4 4 4 4 4 5 6 5 6 8 9 11 12 12 13 13 13 13 14 14 15 14 13 14 15 14 14 10 9 7 6 5 5 4 5 6 6 6 7 7 7 6 7
3 3 3 3 4 4 3 4 5 5 6 7 12 12 11 13 14 15 15 13 13 15 13 14 15 15 15 12 11 11 9 8 7 6 6 5 6 6 7 6 6 7 7 8
2 3 3 2 3 3 4 4 3 4 4 6 7 10 10 12 12 12 12 13 14 14 13 14 15 15 14 13 12 12 12 11 9 7 6 9 6 6 6 6 7 8 8 9
2 2 2 3 3 4 3 3 3 3 3 4 5 5 6 7 10 12 11 12 13 13 13 13 14 14 13 14 14 13 13 13 12 10 9 7 6 7 7 7 8 8 9 8
2 2 2 2 3 3 3 3 4 4 4 4 4 4 5 6 7 7 9 12 11 13 13 12 13 13 14 14 14 14 14 14 13 13 12 10 8 8 8 8 9 10 10 10
2 4 2 2 2 2 3 4 4 4 5 5 5 4 5 6 6 7 8 8 10 12 12 13 13 14 14 15 15 15 15 15 15 14 13 13 12 11 11 11 11 11 11 11